Theta_e
325 325 325 326 326 327 327 327 327 328 328 329 329 330 330 330 329 330 329 329 329 329 329 329 330 329 328 328 328 325 318 302 304 304 302 304 322 334 334 334 334 333 326 299 301 301 300 296 300 297 297 297 297 299 300 301 296 294 291 287 287 285 287 289 290 289 292 293 294 293 289 292 293 292 294 293 292 290 292 292 294 292 293 298 300 294 298 299
324 325 325 325 326 326 326 326 327 327 327 328 329 329 329 329 329 329 329 329 328 328 328 329 330 330 328 327 327 325 306 300 302 303 304 317 326 333 332 331 333 330 320 301 300 297 299 297 297 294 296 298 297 299 299 299 299 290 286 289 289 284 290 291 290 290 292 295 293 293 290 291 293 290 292 293 294 292 293 295 294 294 296 296 296 297 296 300
324 324 324 324 324 325 325 325 325 326 327 327 328 328 328 328 328 329 329 329 328 328 328 328 330 329 328 326 325 324 313 302 299 301 303 325 329 329 331 330 330 324 302 304 300 299 301 301 297 298 294 298 294 297 295 298 299 292 293 290 286 289 289 289 289 292 291 292 294 293 291 288 293 291 292 293 292 291 292 294 296 295 297 297 296 294 296 302
323 323 323 323 323 324 324 324 324 326 326 326 327 327 328 327 328 329 329 329 328 328 328 328 329 329 326 325 325 310 302 299 299 300 301 323 328 329 329 329 328 312 302 299 298 297 293 295 293 298 297 294 293 293 296 295 296 294 291 289 290 288 292 292 289 292 291 291 292 291 289 290 294 292 292 291 292 294 295 296 295 296 297 297 296 295 294 301
322 322 322 322 322 323 323 323 324 324 325 325 326 327 327 327 328 328 328 328 328 328 328 328 328 328 325 325 320 305 301 295 298 300 304 325 328 330 326 327 323 298 300 296 296 293 296 297 295 292 295 296 291 292 293 293 294 292 292 292 290 289 291 294 290 289 290 288 289 288 289 294 291 291 290 291 290 293 297 299 296 296 296 295 296 297 296 299
322 322 322 322 322 322 322 323 324 325 325 326 326 327 326 326 327 327 327 328 328 328 328 328 328 327 325 322 305 302 301 289 300 301 327 326 328 324 324 320 316 295 297 294 294 294 298 297 295 294 291 293 291 293 293 290 294 292 289 289 289 291 293 292 290 288 289 290 290 290 292 290 291 291 293 291 292 296 299 299 297 296 296 295 293 294 295 297
321 321 320 320 321 321 322 322 323 324 325 325 325 325 326 327 327 327 327 327 328 328 328 328 327 326 324 316 301 301 298 300 301 304 320 324 322 321 321 311 312 299 297 297 294 297 293 295 293 293 290 290 290 290 291 290 291 292 291 288 294 289 292 292 293 290 289 288 291 291 290 290 291 290 290 289 294 296 298 298 296 296 294 292 293 294 294 295
320 320 320 319 320 321 321 322 323 324 324 325 326 326 327 327 327 327 327 327 327 328 328 327 326 325 321 302 305 298 293 300 302 301 314 318 305 303 312 301 298 298 298 295 296 295 293 294 296 292 290 294 292 292 292 292 289 290 289 289 290 289 290 290 289 288 288 289 291 289 289 291 292 291 290 293 294 295 296 296 294 292 292 293 292 293 293 293
320 320 319 319 320 319 320 322 323 323 324 325 325 326 327 327 326 326 326 327 327 327 327 327 325 324 318 298 295 295 297 302 302 300 301 299 298 298 301 303 297 297 294 293 293 297 300 295 295 294 295 292 292 292 290 291 289 289 290 287 289 292 294 292 290 289 289 288 287 288 288 290 291 291 290 294 296 296 294 293 293 292 294 294 294 293 293 293
320 320 320 319 319 319 320 321 322 322 324 324 325 326 327 327 326 326 326 326 327 327 326 326 324 319 303 300 295 295 301 300 300 297 297 298 296 298 300 298 295 295 298 294 296 297 299 295 298 297 295 292 291 292 289 292 292 288 288 288 289 291 291 290 289 289 288 287 287 289 288 290 290 290 290 292 292 292 293 293 292 291 293 294 294 295 295 293
321 320 320 319 318 319 320 320 320 321 322 324 325 326 326 326 326 326 326 326 327 327 327 326 319 312 301 295 294 294 304 303 300 299 298 298 298 300 300 299 298 295 295 294 298 296 298 296 294 295 297 293 291 291 291 292 290 289 288 288 290 289 291 290 288 288 289 291 285 289 290 290 286 290 291 295 295 292 291 292 292 292 293 294 294 294 295 294
320 320 319 319 319 319 319 319 319 320 322 323 324 325 326 325 325 325 325 326 327 327 326 324 315 300 296 298 296 300 301 303 299 300 300 300 300 301 299 298 297 299 298 297 298 297 296 297 297 296 294 295 292 290 290 288 290 288 288 289 286 288 291 290 291 289 288 292 285 287 288 286 287 287 291 293 292 291 291 293 294 293 293 293 293 293 294 295
319 318 318 318 317 317 319 318 319 320 321 323 324 325 325 324 324 324 325 325 326 326 324 321 312 302 301 296 299 303 300 298 298 299 301 300 299 299 298 296 297 297 299 296 298 298 295 295 298 294 295 293 289 291 290 289 288 287 286 285 287 286 289 289 291 289 292 292 288 293 287 287 286 288 291 292 291 293 296 296 295 295 294 293 293 294 295 296
318 318 318 317 317 318 318 318 319 320 322 323 324 324 324 323 323 324 325 326 326 326 321 315 301 297 297 295 301 303 300 298 301 303 300 300 301 302 300 298 297 297 297 297 296 296 297 294 295 292 293 294 292 294 293 288 286 290 288 284 283 286 283 287 291 289 291 291 289 292 286 289 290 291 292 292 293 294 295 296 296 295 294 294 294 295 295 296
317 317 317 317 317 317 317 318 319 321 322 323 323 324 323 322 323 324 326 326 325 324 318 313 301 303 295 299 302 302 315 302 301 302 298 300 298 302 300 298 298 296 297 298 299 296 295 296 295 291 291 289 290 288 288 283 283 282 286 283 283 283 287 290 290 288 289 290 289 293 286 289 292 294 294 292 292 291 295 295 295 294 294 294 294 294 294 294
317 316 316 316 317 317 317 317 318 320 322 323 322 321 320 321 322 324 326 324 322 320 306 305 301 295 294 296 302 315 301 301 302 301 299 300 299 300 298 295 297 296 296 297 296 294 294 293 291 289 289 289 284 283 283 283 282 281 284 283 283 284 285 287 288 288 289 290 290 290 287 289 291 294 296 295 293 293 292 293 294 293 293 293 292 292 292 293
316 316 316 315 316 316 317 317 318 320 321 321 321 320 320 320 322 324 324 318 309 306 305 303 298 300 297 300 304 299 299 300 301 302 301 299 299 298 298 296 297 293 294 296 295 298 293 292 288 290 286 285 283 285 285 280 281 280 281 283 283 283 285 285 289 286 287 289 289 290 286 288 291 294 296 297 295 294 294 293 292 292 291 291 291 291 291 291
316 315 315 315 315 316 316 317 319 320 320 320 319 319 317 322 320 320 315 309 301 302 303 299 299 297 296 299 297 298 299 297 302 300 298 299 295 294 295 296 293 292 290 294 294 293 292 293 287 289 288 286 285 286 282 280 282 282 282 281 283 281 283 285 283 287 289 287 287 288 287 290 292 294 295 296 295 293 293 292 291 290 290 290 290 290 290 290
315 315 315 315 315 315 316 317 319 320 320 320 321 321 319 317 302 300 300 302 298 296 297 294 297 293 288 297 296 297 300 302 300 299 301 298 299 295 294 292 291 294 291 290 292 291 290 287 288 285 287 286 287 284 284 285 283 283 282 282 281 282 284 283 286 288 286 288 288 287 287 289 291 292 294 295 294 292 292 291 290 290 289 289 289 289 289 289
315 315 315 315 314 315 315 318 320 319 320 313 309 302 298 298 294 291 297 300 295 295 293 295 296 295 298 298 300 303 302 299 300 299 297 297 299 295 294 292 292 291 287 288 288 288 288 286 282 283 286 287 284 284 285 284 284 283 283 282 282 282 284 286 286 287 286 288 287 288 288 288 290 292 293 293 293 292 291 289 289 289 288 288 288 288 288 288
315 315 314 314 314 314 316 318 320 318 317 309 303 297 291 291 287 287 290 296 294 293 297 296 296 297 299 298 297 298 295 297 296 296 298 299 294 294 291 291 289 292 287 285 287 289 286 284 283 280 285 286 286 283 282 284 283 283 283 282 282 282 283 287 287 287 286 286 286 288 287 288 290 292 292 292 291 290 289 288 288 288 288 287 287 287 287 288
314 314 314 314 313 314 316 318 319 316 313 307 306 297 294 295 294 292 294 293 296 295 293 295 293 296 297 297 298 295 293 291 296 296 298 298 294 293 291 290 285 288 285 284 286 286 283 282 285 285 285 281 280 281 282 285 285 283 283 282 281 284 284 287 286 286 286 286 286 287 286 288 290 290 291 290 289 289 289 289 288 287 286 286 286 286 287 287
313 313 313 313 313 315 316 318 317 314 305 305 302 301 302 305 299 295 300 293 293 295 295 295 299 294 297 297 294 296 292 290 291 295 296 296 293 292 289 287 285 285 284 283 285 282 282 278 283 284 282 283 282 279 280 280 281 283 283 282 282 283 282 281 287 287 286 285 283 285 284 286 289 289 288 289 290 288 289 289 289 288 286 286 285 286 286 286
313 313 313 312 313 314 316 317 315 311 306 306 306 304 303 299 296 298 296 291 290 293 294 297 298 296 295 297 298 294 292 293 291 292 296 293 290 291 287 287 285 284 287 283 286 284 283 287 284 280 282 285 286 282 283 282 283 281 282 282 281 282 283 282 283 285 286 286 286 284 282 283 285 284 286 289 289 288 289 290 289 289 288 287 287 287 287 286
312 312 312 312 313 315 316 314 308 307 306 307 305 306 299 296 294 298 296 290 288 290 295 297 294 293 297 299 294 297 290 290 294 292 292 294 291 288 288 287 286 283 285 282 283 282 283 283 283 284 282 282 284 283 283 285 282 280 280 283 284 282 282 283 283 282 281 281 281 282 276 278 283 285 286 288 288 287 288 288 288 288 286 285 285 285 286 287
312 311 311 313 314 315 316 300 301 307 306 303 307 306 298 295 295 295 288 282 283 286 294 294 300 297 299 297 294 290 293 291 294 293 296 295 295 291 287 286 286 286 283 284 285 283 282 283 284 285 283 282 282 282 283 284 281 281 283 282 283 282 282 281 281 281 277 275 282 283 277 274 283 283 285 287 285 286 286 286 287 287 285 284 284 285 285 286
311 311 312 313 314 314 297 292 304 306 298 303 308 306 299 297 297 298 291 282 282 289 291 295 296 295 298 294 293 291 288 287 292 291 290 294 293 293 287 281 281 283 285 282 279 278 284 285 282 282 283 282 281 281 283 283 282 281 282 282 283 282 282 282 281 280 279 283 285 282 282 276 276 282 285 284 283 283 282 283 284 286 284 283 284 284 285 286
311 311 312 313 313 312 301 304 303 304 303 307 307 302 298 296 295 296 288 279 278 292 292 292 296 299 299 294 290 290 290 289 286 289 290 292 293 287 287 283 284 282 284 283 276 280 283 283 282 282 281 279 281 283 284 283 283 281 284 283 282 282 282 282 280 280 280 278 276 279 281 275 276 281 283 284 281 280 279 281 282 283 284 283 284 285 285 286
310 310 311 312 313 311 310 307 306 304 308 309 305 299 299 294 293 288 285 279 289 285 300 293 301 297 291 292 290 284 289 288 287 288 289 289 291 289 284 284 282 283 281 284 281 280 284 283 284 283 281 281 282 282 280 283 281 282 283 283 282 281 281 281 278 278 278 274 273 277 280 274 275 280 279 280 279 278 279 280 281 282 283 283 284 285 285 286
310 311 311 311 306 301 302 308 306 307 307 305 303 303 305 299 291 286 282 276 289 287 292 293 295 289 287 289 284 286 289 286 286 287 286 286 290 291 287 286 284 283 285 280 282 281 282 284 287 284 282 283 280 282 281 283 284 283 282 281 282 281 280 279 278 275 272 270 273 279 278 276 269 277 276 279 279 280 279 280 281 282 283 284 285 285 285 285
310 311 311 309 298 299 298 298 305 306 306 304 305 304 300 287 284 281 274 283 289 289 292 291 290 288 285 287 286 283 286 283 286 283 284 285 285 286 286 286 284 280 276 276 281 281 283 282 285 285 285 284 283 283 283 283 283 281 278 278 278 276 276 276 266 270 266 268 274 274 275 275 267 272 278 281 282 282 280 278 279 280 281 282 283 284 285 285
310 311 311 304 302 304 295 295 303 307 307 305 302 289 287 287 285 283 281 292 287 288 285 286 286 283 284 284 285 282 285 284 284 283 282 279 280 282 282 280 280 275 275 274 277 278 279 281 282 284 288 285 282 280 281 282 280 279 277 278 272 267 269 264 266 263 266 270 273 276 276 271 272 277 278 281 279 279 280 280 280 281 281 282 283 284 285 286
310 311 308 306 306 306 307 307 307 307 307 305 294 286 283 283 277 284 285 286 288 288 288 287 286 286 284 284 282 282 283 283 282 282 282 280 279 280 281 280 281 280 276 276 277 273 275 277 280 282 284 284 282 278 277 277 277 275 278 273 265 265 262 263 265 266 268 271 276 273 274 270 275 278 280 281 279 279 280 281 282 282 281 282 283 284 285 285
310 308 303 303 304 305 308 308 308 307 307 300 293 287 284 280 279 289 284 284 290 285 286 285 285 282 284 284 282 283 282 283 281 282 280 280 277 279 279 280 281 280 279 277 275 273 271 270 279 281 280 282 281 279 279 277 276 275 278 276 269 266 265 261 263 262 263 267 271 274 269 265 269 275 280 278 280 280 282 283 283 283 282 283 284 284 284 285
309 303 303 303 304 306 307 307 308 307 300 289 284 283 281 281 281 281 282 282 282 284 287 286 284 282 282 282 281 280 283 281 281 280 279 279 279 278 278 280 280 281 279 276 274 272 275 274 278 282 282 279 279 281 281 278 274 277 277 277 271 269 273 265 265 263 262 266 266 266 270 274 275 280 279 279 280 281 282 282 281 281 282 283 283 283 283 284
306 303 306 306 307 308 306 308 308 307 293 286 283 280 281 282 285 283 286 285 287 287 285 283 283 282 280 278 280 281 285 281 281 280 277 279 279 278 279 279 280 281 280 277 276 269 275 274 280 282 280 277 278 279 279 279 266 275 274 268 272 277 276 268 267 269 266 265 267 273 272 275 277 278 278 278 279 280 281 280 280 281 282 282 282 282 283 283
295 297 299 300 303 305 307 309 309 300 291 284 282 280 281 280 286 284 290 289 287 284 282 283 282 281 280 278 281 280 282 281 281 279 278 279 279 279 280 281 280 279 281 278 275 277 272 274 280 280 279 282 278 278 278 279 278 273 267 272 277 279 276 265 259 261 263 261 263 270 267 270 270 266 276 277 277 278 279 278 280 280 281 281 281 282 282 282
295 300 302 300 303 306 308 308 303 294 289 287 282 289 282 286 286 286 286 286 287 285 282 282 283 282 280 279 279 281 282 282 279 281 279 280 278 283 281 279 280 279 279 279 274 276 278 270 277 278 279 281 279 279 278 279 278 275 273 278 269 261 262 269 262 257 258 259 263 266 269 269 271 270 274 274 275 276 277 278 279 279 280 280 280 281 281 282
298 294 289 298 304 309 308 307 303 294 288 285 281 283 285 284 285 283 286 288 286 284 284 283 284 284 281 282 281 281 280 281 280 280 277 280 277 280 280 279 280 278 278 279 279 278 279 268 273 276 276 278 277 273 267 271 276 277 275 274 277 271 268 261 266 261 264 263 262 262 266 265 271 271 274 274 276 276 277 277 278 279 280 280 280 280 281 281
297 290 286 302 307 309 308 307 296 291 286 283 281 284 284 284 285 286 286 289 288 286 285 282 284 283 283 283 282 282 281 279 280 280 279 280 279 282 278 278 277 277 278 278 276 279 273 278 266 275 276 276 272 275 271 273 268 271 271 271 270 268 272 270 269 261 261 258 257 260 261 265 273 276 276 276 277 277 277 277 278 279 279 279 280 280 280 281
296 289 288 304 307 306 305 299 292 286 283 283 284 283 284 286 290 291 288 289 290 292 288 284 282 283 282 281 282 281 281 280 281 280 280 279 279 275 278 277 279 277 278 278 275 275 266 273 268 274 272 271 272 275 275 275 275 273 272 271 270 265 261 261 260 270 259 260 255 258 259 268 274 278 278 277 278 278 278 278 278 278 279 279 280 280 281 281
291 285 288 305 305 306 299 291 288 285 285 285 287 286 288 297 290 290 290 290 291 290 289 286 284 283 281 282 282 281 281 281 281 280 279 279 279 278 278 275 277 278 273 273 274 276 273 271 271 268 272 272 275 276 278 276 276 276 273 271 274 272 269 259 260 259 264 268 267 267 264 266 278 277 277 278 278 278 279 278 277 278 278 279 280 281 281 282
289 288 303 305 305 306 298 289 291 289 287 288 289 290 292 291 292 292 292 290 290 291 287 287 286 284 284 284 282 282 282 281 279 281 277 278 276 277 277 275 277 277 275 275 273 278 281 261 261 271 272 274 272 274 276 276 275 273 273 274 273 272 272 268 266 269 267 268 265 265 264 268 276 276 277 278 278 279 279 278 277 278 279 279 280 280 281 281
293 297 298 304 303 302 294 287 286 288 289 290 290 290 293 292 291 288 289 289 290 287 287 285 285 287 284 281 281 282 283 280 281 280 278 276 276 277 276 275 276 276 274 274 271 276 266 270 268 262 264 268 270 272 273 273 273 272 271 273 274 274 273 271 270 270 263 267 267 264 259 264 274 277 278 278 277 277 277 278 278 277 278 279 280 280 281 281
296 295 297 299 302 298 291 292 290 287 288 289 289 287 288 289 291 292 290 288 288 285 284 284 286 284 281 281 281 281 282 281 276 280 278 277 277 278 276 275 276 275 277 279 286 277 270 269 265 261 261 261 262 263 263 263 268 271 273 272 274 273 271 267 261 265 264 267 268 262 262 270 274 276 276 276 276 276 277 278 278 279 279 279 279 280 281 281
290 284 293 289 296 297 294 290 289 288 286 285 285 287 288 287 288 287 290 289 288 286 285 284 281 281 279 280 280 280 281 280 279 277 277 276 276 276 277 275 274 276 281 284 282 277 265 272 271 269 265 264 268 269 272 275 271 268 270 272 272 272 272 270 268 265 263 265 264 266 267 269 271 273 274 274 275 275 275 276 277 278 279 279 280 281 281 281
294 286 287 283 293 294 291 289 287 286 285 288 284 286 285 287 287 285 291 286 287 286 283 284 282 281 281 280 280 279 280 278 278 277 276 275 274 277 276 276 275 277 284 281 281 272 269 267 271 271 271 271 272 271 272 274 270 271 271 271 273 272 270 266 263 263 269 265 262 270 271 268 269 272 273 274 275 275 276 276 277 278 279 279 280 281 282 280
288 290 292 293 290 286 287 288 290 288 288 288 286 287 285 285 285 283 286 287 283 284 284 282 281 284 283 282 280 277 278 278 276 274 274 277 276 278 276 277 274 281 283 278 281 274 271 264 269 272 271 273 273 273 273 272 272 272 272 272 271 272 271 267 267 269 269 264 263 269 270 268 270 272 274 274 275 275 276 277 278 279 279 280 280 278 278 278
293 289 290 294 289 291 291 291 291 290 288 288 286 287 284 284 284 285 284 282 282 281 285 280 281 281 282 282 282 279 278 273 274 275 275 275 276 273 271 272 277 276 277 276 277 277 272 268 271 272 269 272 272 273 274 272 271 271 272 272 273 272 271 271 270 271 270 268 270 271 270 270 272 273 274 275 277 277 277 278 279 279 279 278 277 277 277 277
287 288 286 291 289 287 288 289 290 289 286 289 284 285 286 286 284 284 283 283 280 281 283 282 283 281 281 281 281 279 278 280 279 275 276 275 273 273 271 274 273 277 276 275 276 275 273 268 275 272 267 268 271 273 272 272 270 269 271 272 272 272 271 271 271 271 271 270 271 270 269 269 274 276 275 277 277 278 277 277 278 278 277 276 276 276 276 276
296 294 294 288 286 286 286 287 287 288 286 286 285 286 286 286 285 287 285 287 285 282 282 282 283 280 281 280 280 281 282 281 280 280 278 278 275 277 273 272 279 275 276 274 275 273 276 268 273 269 262 264 270 270 271 271 270 269 269 270 271 270 268 269 267 270 268 267 269 269 266 268 273 276 276 276 276 276 276 277 277 276 276 276 275 276 275 274
293 294 295 293 287 290 286 287 286 286 283 287 287 287 287 286 287 288 284 287 286 287 285 284 283 281 278 278 278 281 283 281 282 281 281 280 280 279 279 278 279 276 274 274 277 273 275 270 263 262 263 265 270 270 268 268 267 264 265 270 271 272 272 272 272 272 272 272 268 265 267 273 274 276 274 275 275 276 276 277 275 275 276 276 276 275 273 272
Wind_Speed
18 18 19 19 20 20 20 20 19 19 19 19 18 18 17 17 15 13 13 13 15 15 13 12 8 7 7 8 9 11 8 3 6 7 10 3 3 6 10 10 11 14 8 2 6 4 2 7 7 10 3 3 2 1 1 3 2 2 2 4 0 3 4 6 6 9 1 2 7 4 1 5 14 2 3 1 3 4 7 8 6 5 11 9 4 3 2 4
18 19 19 20 20 20 21 21 21 21 20 19 19 18 18 18 17 14 14 14 14 15 15 13 11 7 7 7 9 8 5 4 9 9 4 1 4 6 8 9 11 12 5 2 4 3 3 5 4 6 5 2 2 0 1 0 1 3 2 1 4 6 6 8 6 6 0 8 5 6 0 2 11 3 2 6 8 3 13 13 2 8 11 7 9 11 10 7
19 19 20 20 21 21 22 23 23 22 22 21 20 18 17 15 17 15 14 14 14 14 13 15 12 10 6 7 9 5 2 1 4 9 1 2 6 6 7 9 8 7 3 1 1 2 1 0 0 1 4 0 7 1 3 1 1 0 3 2 5 8 5 6 4 3 8 3 9 10 4 2 11 3 0 1 11 9 11 11 11 5 11 10 4 6 7 6
19 20 20 21 22 22 22 23 24 23 22 22 21 19 17 14 16 15 14 12 14 12 13 14 12 10 11 9 8 1 2 4 5 2 1 5 7 7 8 8 8 3 0 7 2 2 3 5 8 5 1 4 4 2 3 2 2 1 2 3 3 4 1 2 6 7 7 1 4 5 4 9 9 2 1 1 10 14 9 7 8 10 11 10 11 7 7 6
19 20 21 21 22 22 22 23 23 22 22 21 20 18 15 14 14 16 15 13 14 14 11 12 12 11 12 9 1 2 3 3 0 1 3 8 9 9 9 8 7 4 3 5 2 6 8 6 1 6 3 1 4 3 1 2 2 3 7 5 3 1 3 4 6 5 2 1 2 5 8 11 5 5 3 2 4 11 9 9 1 6 10 9 12 13 7 9
19 20 21 21 22 22 22 22 22 22 22 22 21 20 17 16 15 16 16 15 14 16 11 12 11 12 13 5 6 3 1 2 1 2 6 9 10 10 7 7 5 3 3 6 2 3 4 6 4 2 4 2 1 2 3 1 1 3 3 4 3 4 4 1 2 4 3 1 5 6 5 6 5 9 6 5 11 10 12 10 8 9 10 9 7 6 9 10
19 20 20 21 22 22 22 23 23 23 22 22 21 20 18 15 14 15 16 16 16 14 13 11 10 12 16 6 4 10 8 1 2 4 9 9 9 10 4 5 5 8 6 5 6 2 3 4 5 0 1 2 1 0 2 3 3 2 6 3 9 5 8 3 4 3 2 4 8 3 7 7 10 12 1 3 9 15 15 13 9 8 8 4 7 7 8 9
19 19 19 21 20 21 21 23 23 23 22 21 20 19 20 18 14 16 16 17 16 15 12 11 9 11 11 3 1 4 4 0 4 4 8 7 8 9 2 4 8 4 10 5 1 2 1 4 2 1 2 2 2 1 1 3 1 3 5 2 8 3 4 2 3 5 5 8 10 4 3 12 9 5 7 12 10 12 13 7 6 8 9 7 6 9 8 8
19 19 19 18 19 20 21 22 23 23 22 22 22 20 20 20 19 17 17 17 16 12 11 9 8 9 2 6 5 4 3 1 2 6 5 7 7 8 7 3 7 8 3 4 4 3 1 2 0 3 2 0 0 1 2 1 4 4 6 2 8 12 11 5 4 4 3 3 4 2 9 13 11 6 7 15 12 9 4 7 8 10 11 11 11 10 9 10
19 19 17 18 20 21 22 22 23 23 22 22 20 19 18 19 19 19 17 16 15 11 9 7 9 5 5 3 4 6 1 3 2 4 5 5 6 7 9 4 3 3 2 4 2 4 2 2 1 2 4 2 0 1 1 1 2 2 5 6 7 17 12 2 2 3 4 3 8 7 4 9 6 6 7 1 6 4 9 8 9 10 11 12 10 10 9 10
16 16 17 18 20 21 23 23 23 24 24 21 22 20 19 19 20 20 19 15 13 8 7 6 8 6 2 3 5 4 1 2 1 4 6 5 9 8 4 5 1 4 7 3 2 1 0 1 3 2 0 1 2 1 1 1 1 1 2 7 10 11 8 3 1 0 4 1 8 7 7 6 7 2 8 6 4 9 9 10 10 9 9 9 10 10 9 10
15 15 17 18 19 21 22 23 24 23 22 23 21 22 15 19 19 20 18 15 11 7 4 4 6 4 4 9 7 2 2 1 2 2 6 8 5 2 0 1 2 3 1 1 1 3 0 1 3 1 0 0 2 1 1 3 0 2 1 5 7 11 13 4 5 4 3 2 5 8 2 3 1 5 8 7 8 7 8 8 8 7 6 8 9 9 10 10
14 15 17 18 20 21 21 23 22 22 22 21 22 19 20 19 18 19 18 11 7 4 4 6 4 4 1 5 0 3 2 0 2 6 7 5 3 3 4 4 4 3 2 3 1 1 4 2 1 3 0 2 0 2 1 2 2 1 2 0 6 8 10 3 2 3 8 1 3 6 11 6 7 12 9 8 8 10 14 10 7 8 9 9 9 9 10 11
13 14 15 17 19 20 21 21 22 22 22 22 25 25 21 22 17 17 14 9 6 2 8 6 5 4 2 1 3 3 1 0 3 9 8 7 5 2 0 5 4 4 3 4 2 2 2 1 5 4 1 1 1 3 0 4 4 2 3 3 3 9 5 7 7 5 8 2 9 5 8 12 3 6 7 1 6 10 13 15 12 9 9 10 10 10 11 11
14 13 15 18 19 19 20 20 21 22 22 24 26 23 23 22 17 11 10 5 3 5 8 6 4 2 4 0 2 6 1 1 8 3 3 7 4 3 7 5 5 6 2 3 2 1 2 3 2 3 0 0 0 3 3 3 5 3 5 5 4 5 11 13 5 4 7 3 8 13 7 4 12 12 1 3 4 3 12 14 10 9 10 10 10 10 10 11
14 15 16 17 19 20 19 19 21 22 23 22 23 26 22 21 13 10 5 3 4 6 1 1 5 6 6 2 0 2 4 3 5 2 2 2 3 1 4 5 1 5 3 2 2 2 4 7 7 1 1 1 7 2 4 5 4 5 5 6 7 5 7 14 0 2 5 8 1 6 11 15 16 6 7 3 7 3 2 8 9 10 10 10 9 8 9 11
13 15 16 17 19 20 19 19 20 21 21 22 25 24 23 16 10 10 3 4 1 2 2 0 0 0 1 1 0 3 2 2 4 2 5 2 0 0 3 5 1 5 4 2 3 0 5 2 1 1 4 6 1 2 5 6 7 5 4 4 3 7 11 11 8 3 7 8 13 8 4 12 17 17 13 13 7 12 13 7 9 10 9 9 9 9 10 11
13 15 16 18 19 19 19 19 20 21 21 22 21 18 17 19 9 1 1 3 2 4 5 2 2 3 1 4 2 4 0 5 7 6 3 1 3 2 4 1 2 2 3 1 4 3 4 1 4 2 2 5 7 9 7 4 3 5 6 6 8 3 6 12 9 7 14 1 6 13 13 19 18 13 8 6 5 9 14 10 10 9 9 8 9 11 12 12
12 14 16 18 19 19 18 18 20 21 20 20 14 13 5 5 3 4 6 8 3 5 3 5 6 1 2 3 4 6 3 3 2 3 4 3 2 3 3 2 3 5 4 5 1 6 5 2 5 7 9 10 8 4 1 4 2 7 4 5 5 11 6 6 7 8 7 15 12 10 17 24 27 20 14 15 8 5 7 10 9 10 10 11 11 12 13 12
11 13 15 16 19 18 18 18 18 20 16 12 11 8 6 9 9 2 12 7 6 0 2 3 1 3 3 2 3 6 2 1 3 3 3 1 1 2 1 2 3 6 5 4 9 3 1 9 2 0 3 6 4 2 3 2 3 2 1 1 8 9 13 2 5 2 6 9 8 15 22 26 27 18 15 13 13 10 9 10 9 9 9 9 11 12 12 14
11 12 14 16 18 17 17 17 17 18 13 6 5 9 4 1 4 6 7 10 1 2 2 2 3 2 2 1 2 4 2 1 2 5 4 1 1 1 4 5 10 10 4 2 2 4 6 8 2 5 2 3 3 2 2 1 1 1 6 4 9 6 12 10 9 3 5 8 12 14 21 30 27 17 13 12 9 7 11 10 9 9 9 9 12 12 12 9
11 12 14 15 17 16 17 15 13 16 9 6 9 8 3 1 0 1 1 7 4 0 1 3 1 2 4 3 2 3 5 1 1 7 4 4 4 5 6 7 3 4 4 6 4 9 8 6 2 2 1 3 3 2 1 1 2 3 3 4 6 8 6 12 2 2 4 8 13 16 19 28 26 14 12 5 6 7 10 10 8 9 10 11 11 11 11 13
11 13 14 14 16 16 16 12 7 14 6 8 6 4 3 0 1 2 0 2 6 2 1 1 1 3 1 2 1 3 2 5 1 5 7 4 4 4 0 5 5 1 2 4 5 4 7 4 3 2 3 2 1 3 2 2 1 2 7 5 8 5 7 13 15 12 5 4 5 10 12 22 20 6 6 5 9 7 8 9 9 8 11 11 10 9 10 13
11 12 14 14 16 15 15 5 2 8 9 8 8 3 1 0 1 2 2 1 4 6 1 1 1 1 4 0 1 2 2 1 1 5 4 3 2 1 4 1 1 1 0 1 1 1 7 9 0 4 2 2 2 2 3 3 7 2 2 4 5 7 7 3 11 16 16 2 6 5 13 19 14 9 12 5 11 12 8 10 10 8 6 5 4 8 10 10
11 12 13 14 16 15 13 3 6 5 1 3 4 1 1 1 1 1 1 3 1 3 1 1 3 2 2 1 2 0 1 1 0 2 2 2 0 2 0 1 1 1 1 1 1 1 8 3 1 1 2 4 2 5 1 1 6 5 3 2 4 6 8 11 11 15 13 12 5 8 12 16 15 8 14 8 11 10 7 11 8 8 9 12 13 10 8 8
11 12 14 14 16 16 9 2 2 3 4 4 1 0 1 1 1 1 2 4 3 1 2 1 1 1 2 1 3 1 1 1 0 1 2 1 1 1 1 1 1 2 2 0 3 3 3 1 2 0 3 3 3 0 3 1 3 1 2 1 2 4 3 6 11 10 11 13 4 10 6 19 16 11 8 4 11 8 6 8 4 5 7 9 9 8 8 10
10 11 13 14 14 13 0 1 0 2 2 1 1 1 2 1 1 1 1 4 1 1 1 1 1 0 2 1 1 1 3 0 1 3 2 2 0 1 0 3 2 1 1 1 4 3 0 2 3 4 4 2 3 2 1 3 1 3 3 1 1 2 7 8 6 5 9 5 12 5 8 10 17 4 3 5 8 8 8 7 6 6 6 8 7 6 6 7
10 10 12 12 11 11 3 4 3 3 1 1 1 1 2 1 2 0 1 3 1 1 0 1 0 1 1 2 5 1 1 1 1 0 1 3 0 3 2 2 2 3 1 1 5 4 1 2 3 4 3 3 2 2 2 1 1 2 5 3 5 4 6 5 3 9 7 5 12 4 5 3 7 2 9 13 5 9 9 8 8 10 8 8 8 4 4 6
9 10 11 11 5 7 4 4 4 3 0 3 2 0 0 1 2 3 3 0 1 1 1 1 1 1 6 2 3 2 1 3 1 1 4 1 5 1 1 0 2 1 1 3 7 2 0 1 1 3 1 1 3 1 1 2 4 4 4 2 3 3 4 3 3 7 8 3 12 3 3 5 13 11 7 4 8 7 8 9 7 11 9 8 10 10 7 9
9 9 10 11 3 2 3 3 3 2 1 0 2 1 2 2 2 2 4 4 1 1 1 2 0 3 2 1 1 5 1 2 1 6 4 1 6 6 3 1 2 1 1 5 0 6 3 4 4 4 1 2 2 1 2 5 1 3 2 7 9 7 2 2 2 1 5 7 2 5 2 3 12 8 2 4 2 3 3 7 10 14 12 11 12 13 11 14
8 9 9 8 2 1 1 2 1 2 1 2 2 2 1 3 1 3 2 4 2 2 1 2 2 5 3 1 3 3 2 1 4 3 1 5 4 4 2 1 4 5 3 3 1 7 5 2 2 0 2 1 2 2 2 1 2 1 5 4 8 7 5 4 2 2 1 9 4 1 3 6 12 4 7 6 5 3 4 9 11 13 12 11 13 13 13 13
7 8 7 4 1 2 1 0 2 1 3 4 2 1 3 4 3 4 5 2 2 1 1 2 1 2 2 1 2 1 0 4 2 3 3 2 3 7 8 2 3 5 5 1 2 7 5 2 1 4 2 4 1 4 3 3 7 13 7 7 6 6 6 6 2 5 5 11 6 7 10 12 7 13 4 10 6 4 0 10 11 11 10 10 12 17 17 17
6 6 5 3 2 2 2 0 1 1 2 3 1 3 1 4 4 4 2 2 1 1 2 1 1 1 1 2 3 1 1 1 2 2 1 0 5 2 2 2 1 3 3 1 1 3 5 1 3 3 3 2 3 4 5 7 6 4 3 1 4 4 3 7 7 4 7 9 9 3 7 10 11 5 4 6 3 7 8 15 14 15 20 23 22 21 20 19
6 3 1 1 1 0 1 2 1 1 2 0 0 4 7 1 6 3 1 3 4 2 2 1 2 1 0 4 1 0 1 1 3 2 2 0 3 2 1 2 2 2 2 2 2 1 1 4 1 1 1 2 4 5 4 5 1 0 3 2 4 5 1 7 2 5 7 14 22 14 6 4 6 5 5 3 3 8 16 17 15 15 14 16 18 19 18 17
3 4 3 1 0 2 3 3 3 2 1 1 6 2 3 7 2 2 3 3 2 1 0 1 1 2 5 0 2 2 2 1 1 1 2 1 2 2 3 0 4 2 1 1 1 1 4 5 2 1 2 3 4 2 2 2 4 3 2 3 4 3 3 5 4 3 5 15 15 5 5 7 8 0 4 6 8 16 17 14 8 12 14 17 18 17 17 17
1 1 2 0 1 3 3 3 2 1 2 3 3 2 8 6 3 2 2 2 0 0 2 3 2 3 4 2 1 1 4 2 2 1 1 1 1 3 3 1 0 1 2 1 1 1 2 4 1 2 4 4 1 1 1 3 1 2 3 2 4 2 2 3 6 5 1 4 13 5 12 11 3 14 5 14 16 19 15 10 12 17 19 19 19 19 19 19
0 1 1 1 2 3 4 4 3 2 3 4 3 7 6 4 5 2 2 2 1 2 1 4 4 4 1 3 1 2 2 2 1 2 3 1 1 3 2 1 4 0 1 3 2 3 3 7 3 6 0 1 2 3 3 5 5 4 1 3 4 2 6 5 4 5 3 6 8 4 17 19 11 10 6 17 18 18 14 11 17 20 20 21 19 20 20 21
1 0 1 2 3 3 2 2 3 2 3 3 6 7 1 2 1 2 2 2 0 2 1 2 6 6 4 2 2 3 1 2 2 1 2 2 2 4 4 2 2 4 1 2 4 2 3 6 2 2 5 3 1 3 4 3 5 4 6 2 4 3 5 5 5 3 3 8 8 7 16 15 3 9 10 17 19 16 13 16 20 22 20 19 19 20 20 20
1 1 3 1 2 3 2 1 2 3 3 2 5 3 3 5 0 2 6 5 1 2 1 5 4 1 4 2 3 1 2 4 0 2 1 1 1 3 3 4 2 2 1 3 1 1 1 3 4 0 3 3 1 3 2 2 4 2 3 4 1 5 3 1 1 2 2 12 4 14 7 15 5 5 13 17 15 13 14 18 19 18 20 17 17 17 17 19
1 0 4 1 2 1 2 2 2 3 3 9 5 6 2 1 3 2 2 5 2 3 5 2 3 5 2 4 5 3 2 2 3 4 4 2 2 1 3 2 4 1 2 2 1 1 1 3 5 2 7 4 5 1 1 4 1 1 6 1 4 0 3 5 3 8 5 5 4 5 15 11 5 9 13 15 12 12 16 19 15 17 20 19 19 18 18 18
0 1 3 1 2 2 2 2 2 4 5 2 1 3 1 3 1 1 4 5 1 1 4 3 4 6 4 1 6 3 2 4 3 4 4 3 5 3 2 5 2 1 0 1 1 0 1 1 6 1 5 3 4 3 1 3 8 7 7 4 6 1 4 4 10 2 2 1 3 2 15 20 5 5 10 7 11 15 16 16 18 20 21 19 17 17 20 20
3 3 3 3 3 2 4 4 2 1 2 6 8 5 3 3 1 3 2 0 4 3 2 1 2 3 2 4 3 4 4 3 5 2 3 7 1 4 1 6 4 1 4 3 2 2 3 1 0 8 6 5 4 4 2 3 4 8 8 2 3 3 5 2 5 4 5 5 2 9 11 20 5 3 4 7 14 15 14 16 17 18 20 18 19 18 18 22
5 6 2 2 1 3 3 4 2 2 5 4 3 2 2 1 4 3 3 2 1 3 1 3 5 3 5 4 2 3 5 4 8 6 4 0 2 3 5 8 5 3 2 1 3 1 4 2 1 7 3 2 6 3 6 6 4 1 2 5 2 3 5 6 6 5 8 10 7 6 13 17 5 2 5 11 13 12 13 15 18 18 18 18 19 23 24 24
2 0 2 2 2 2 4 11 7 9 7 2 2 4 3 3 5 3 4 4 5 2 4 3 3 4 2 1 3 5 6 1 3 7 1 3 1 4 3 4 3 2 4 2 3 3 1 3 5 4 6 1 6 5 2 1 2 1 3 4 5 5 4 6 4 4 2 9 11 8 13 14 6 7 13 13 13 13 16 15 13 19 19 20 22 25 21 22
2 1 1 1 1 2 9 5 10 7 7 9 5 9 4 2 6 9 8 5 2 3 2 3 3 2 1 1 2 1 5 5 1 1 4 4 3 1 5 2 3 1 2 4 1 2 2 3 3 2 6 10 12 8 6 5 2 3 3 5 8 6 3 4 2 1 6 7 11 5 11 15 17 15 17 17 17 15 15 15 14 17 20 22 24 23 24 19
4 4 2 2 2 2 4 1 1 6 5 4 5 6 5 7 1 3 5 3 6 2 2 3 1 3 2 3 3 5 7 1 4 2 4 3 2 2 6 6 6 4 3 4 2 3 1 1 3 7 7 9 10 6 2 3 4 5 11 13 17 5 2 2 1 3 7 9 11 12 15 21 19 17 19 21 18 19 20 16 18 20 24 23 21 22 21 26
2 6 6 3 1 7 5 2 4 3 8 6 5 4 10 12 3 1 8 4 4 8 2 4 4 5 5 5 6 4 2 2 1 4 3 4 2 4 3 6 3 5 5 4 1 5 2 1 6 6 10 10 7 9 6 1 4 4 8 17 16 11 6 3 4 9 6 7 17 10 15 16 18 18 20 21 19 16 15 17 20 20 22 21 22 25 30 32
4 5 6 5 7 6 8 10 10 11 5 8 8 4 6 7 6 6 1 3 3 0 6 1 4 10 10 12 6 5 5 5 3 4 2 1 4 1 1 1 2 2 5 1 1 3 4 2 6 5 10 8 8 10 10 7 3 5 11 18 17 13 11 9 8 10 5 6 15 19 19 18 19 17 18 19 18 18 19 19 18 21 18 19 25 31 35 33
2 2 2 1 7 5 13 7 15 16 15 14 5 7 7 11 13 9 6 2 3 3 7 8 9 13 9 7 9 6 8 4 6 2 5 4 5 4 2 1 1 3 2 1 0 1 4 4 5 3 5 3 5 8 6 8 3 4 14 17 14 13 14 13 13 12 9 12 18 19 20 20 18 18 16 17 18 20 19 15 17 20 22 25 27 28 30 29
7 8 5 2 1 1 2 6 10 12 14 15 10 12 8 13 14 6 2 7 4 5 3 11 8 8 9 9 10 9 11 9 6 7 5 6 1 3 3 5 5 1 4 3 3 4 6 5 6 2 1 3 6 7 4 6 5 5 16 16 13 14 12 12 10 10 7 12 17 18 18 19 13 11 15 17 18 19 18 19 16 19 22 29 28 28 27 24
1 4 6 8 7 5 1 4 7 13 10 8 12 11 7 13 15 14 7 5 13 8 8 17 7 5 3 7 10 12 5 8 3 7 12 13 10 8 7 4 9 6 6 2 1 2 3 4 3 2 2 4 3 5 5 4 5 10 17 16 13 12 9 7 5 4 3 12 16 14 13 13 12 12 14 17 21 22 24 19 13 20 28 29 27 25 27 27
4 2 3 7 6 8 10 4 2 6 13 15 14 15 11 17 11 9 7 5 7 5 7 8 7 8 4 8 14 13 5 5 4 3 11 3 4 4 1 4 9 9 7 5 2 3 2 3 1 2 2 5 2 4 2 3 5 8 12 10 11 9 10 11 8 7 10 10 10 11 13 12 16 15 17 20 19 24 23 19 21 22 20 21 23 26 26 29
Wind_Direction
358 357 354 352 349 345 340 335 333 332 331 332 333 336 340 342 340 337 340 335 333 330 325 323 329 332 329 338 334 346 350 96 55 37 59 223 225 268 297 307 310 307 339 31 10 54 335 9 4 344 36 57 319 56 270 55 65 56 70 115 168 205 144 198 186 189 214 297 303 341 148 357 310 11 279 343 283 227 283 266 267 267 248 237 282 305 227 270
357 355 353 350 348 344 338 335 332 332 332 331 333 336 339 340 340 340 342 339 335 331 326 322 322 333 332 341 340 351 37 65 82 74 72 9 294 309 312 308 312 318 312 22 51 73 64 340 339 30 41 52 328 82 17 338 68 87 120 94 245 176 241 160 196 204 356 288 289 293 287 229 267 12 302 344 294 338 316 296 183 259 265 260 277 283 286 293
356 355 354 351 348 344 339 336 334 332 333 333 333 335 336 336 338 340 339 338 335 328 320 318 318 322 337 353 330 23 326 0 40 24 287 261 304 320 319 313 317 339 31 282 243 112 49 206 292 46 12 299 16 290 23 337 35 2 125 253 249 212 248 232 180 220 203 323 304 308 318 60 276 329 21 249 304 309 284 286 320 312 299 309 278 302 306 313
357 356 354 352 347 344 340 337 335 334 333 332 329 332 335 336 336 337 336 327 330 323 321 318 318 320 336 349 342 77 90 57 49 270 282 298 332 337 335 327 326 352 20 50 123 88 98 76 48 59 16 54 317 41 32 333 53 270 89 188 236 199 345 276 194 241 241 193 279 284 303 314 298 281 59 317 341 301 276 250 229 266 284 292 302 295 297 276
359 357 355 352 347 343 341 338 334 332 331 327 327 328 334 333 335 337 338 334 334 329 321 314 323 319 329 348 67 104 89 55 267 255 283 332 349 345 345 342 355 31 98 137 74 45 59 66 65 33 64 310 358 4 38 355 99 115 212 208 164 172 279 242 197 191 167 273 241 293 320 280 318 293 204 170 231 273 290 296 186 261 278 290 306 308 320 295
1 358 355 351 346 343 340 335 330 329 327 326 326 330 333 337 336 338 338 340 337 330 323 324 325 321 329 9 94 75 80 74 268 328 342 355 351 344 350 7 33 85 84 43 79 8 46 355 58 21 1 46 2 54 303 100 336 316 301 272 247 221 245 243 119 185 127 303 281 297 269 329 284 285 261 193 223 250 261 276 295 283 290 302 293 300 306 298
1 358 354 350 346 342 338 334 330 328 326 327 326 324 328 336 333 340 339 341 339 326 329 328 330 331 333 95 77 81 90 176 343 296 1 354 348 346 355 33 46 50 64 56 18 66 28 42 70 204 84 46 330 142 292 338 360 139 257 301 298 161 210 243 293 172 203 196 252 228 332 303 287 306 71 195 242 248 272 284 298 311 319 338 314 314 296 298
0 356 351 346 341 337 333 330 328 326 326 323 324 326 327 329 339 341 343 341 337 329 324 339 339 338 351 44 54 15 43 311 281 6 340 343 3 343 290 24 41 52 56 68 21 46 92 40 40 155 60 57 236 161 343 333 36 158 265 287 282 297 218 200 233 264 243 238 252 348 312 266 248 253 355 279 248 256 264 310 340 346 335 340 339 327 322 314
359 354 348 342 340 337 330 326 326 327 325 324 326 327 326 327 338 343 344 339 332 324 328 344 347 344 46 83 100 68 347 250 201 311 346 4 351 12 29 16 8 73 116 52 21 118 92 285 10 181 284 99 128 9 326 350 329 203 234 328 300 294 298 311 277 248 219 229 171 126 241 267 283 299 246 259 271 265 341 346 357 353 348 340 333 332 334 329
358 353 347 342 341 336 329 328 327 326 326 323 324 325 324 328 334 342 341 336 325 324 330 347 356 336 47 76 40 80 274 133 324 334 14 10 21 46 42 63 40 64 63 337 23 46 61 225 126 191 124 79 155 250 140 67 258 153 278 279 291 285 315 340 19 289 299 210 167 161 253 267 309 12 297 299 260 352 351 357 353 359 341 331 329 326 329 333
355 350 346 344 340 333 331 330 329 328 326 324 324 324 326 328 336 339 338 332 317 318 331 1 15 42 55 77 98 96 253 45 7 7 9 20 46 42 4 347 46 75 96 26 86 240 241 149 159 144 65 226 123 302 177 225 168 274 254 307 296 304 292 240 70 284 327 339 185 152 243 276 321 118 244 269 321 12 4 348 345 344 330 320 320 330 327 332
352 351 349 345 337 332 330 331 329 329 328 326 324 320 318 330 339 337 333 329 313 318 9 49 56 97 69 71 81 84 318 216 31 29 38 23 51 45 139 68 32 134 118 140 270 268 155 155 128 58 249 147 319 102 302 245 2 275 23 307 314 337 334 37 9 340 3 320 158 196 210 319 5 217 250 270 352 8 354 337 336 345 331 327 335 336 343 344
349 351 351 345 338 331 330 331 331 328 330 327 321 312 316 332 342 336 327 335 311 335 78 65 65 69 85 43 340 253 317 95 68 28 15 41 118 83 81 60 70 86 137 132 217 344 127 138 122 77 201 101 198 359 177 66 308 22 47 136 342 357 329 302 338 32 354 344 350 359 325 166 255 243 261 303 4 350 329 346 3 358 5 6 6 5 3 3
347 347 348 343 334 328 329 329 331 330 330 327 322 316 321 328 345 331 323 317 331 82 89 88 74 62 81 165 281 252 276 174 42 31 4 324 47 326 12 17 42 33 36 102 71 110 120 71 96 118 117 68 316 310 233 334 16 310 294 71 60 346 281 314 335 304 9 299 10 25 309 305 225 267 284 7 24 349 330 336 354 15 27 31 32 31 28 24
345 347 347 341 331 327 329 330 331 333 330 327 322 315 323 328 341 315 321 324 18 121 129 85 44 70 58 351 269 307 167 122 43 343 321 24 10 338 332 11 16 19 17 71 127 39 108 79 77 40 357 317 316 22 322 19 360 347 29 329 332 43 295 320 356 34 13 321 354 359 279 281 297 289 319 36 21 25 332 330 354 31 42 39 37 32 25 19
348 348 346 337 329 327 330 332 337 335 332 323 322 318 321 326 341 313 319 141 124 97 108 59 1 102 98 55 231 132 41 46 333 304 332 73 49 335 279 286 192 9 21 25 67 94 48 81 66 177 312 23 43 70 18 29 344 3 75 290 316 324 297 330 311 109 106 341 14 67 288 317 312 310 328 13 351 343 279 318 2 55 49 44 35 28 21 15
349 351 343 336 331 330 331 333 340 335 329 326 323 319 324 320 332 318 93 87 40 327 69 105 115 323 72 249 235 38 335 284 271 359 346 41 107 222 344 11 11 355 13 53 17 38 354 63 267 359 48 96 193 81 37 26 337 318 17 324 287 312 326 317 312 61 18 36 318 321 261 271 275 300 332 342 352 338 334 356 55 64 52 39 32 26 22 16
351 350 342 335 332 333 332 339 342 335 329 324 323 313 312 311 338 127 10 50 2 75 80 72 112 42 1 18 41 319 333 284 344 296 255 271 96 52 60 8 325 50 53 31 349 57 327 32 26 165 347 26 26 28 68 316 256 276 318 328 313 243 218 264 314 295 6 108 306 304 294 295 293 302 338 332 360 350 335 40 67 62 49 37 30 25 17 14
353 348 339 335 330 333 337 341 341 335 330 318 314 321 318 18 36 74 50 354 32 347 34 339 14 66 203 291 270 283 287 232 290 9 322 14 340 110 76 92 64 38 350 35 317 46 348 40 25 36 6 344 353 57 111 225 191 255 258 269 275 314 307 271 259 299 20 331 329 331 316 308 306 320 344 339 353 348 348 64 55 48 38 30 26 20 16 9
351 345 337 333 330 332 339 345 339 336 336 345 358 2 13 9 5 337 345 22 68 126 226 271 240 267 322 347 323 276 263 354 163 339 316 283 321 349 50 68 360 72 62 32 313 53 280 38 49 186 283 287 272 206 217 232 206 267 260 273 288 293 294 265 262 316 343 338 325 323 312 304 300 323 343 335 341 340 63 71 59 50 44 37 28 21 11 10
347 342 335 333 326 333 339 344 341 338 354 14 11 45 45 316 39 325 331 285 279 96 46 252 204 211 263 267 274 360 67 320 97 352 344 178 91 113 331 23 16 24 1 241 245 305 64 25 301 222 245 250 266 179 109 74 49 292 300 333 312 306 291 305 305 35 341 28 301 319 312 299 300 326 339 341 337 1 71 81 58 50 44 36 29 20 15 356
344 338 336 330 325 334 339 341 351 350 37 36 57 76 117 130 169 225 114 317 332 248 307 256 325 306 309 227 263 141 91 62 14 356 310 23 321 56 322 79 83 35 319 347 4 15 5 319 240 226 218 84 58 90 64 156 293 317 288 307 324 296 281 286 202 36 27 1 300 317 307 293 300 342 328 341 63 68 74 89 86 59 43 29 24 17 6 6
342 336 331 331 327 333 336 337 19 19 28 25 47 73 95 248 322 282 101 209 277 277 1 45 262 309 321 266 259 171 60 58 273 340 335 24 11 76 46 42 14 336 6 28 59 8 357 290 256 225 131 109 63 64 79 35 68 284 320 340 294 309 9 319 319 338 324 170 255 273 277 287 300 348 314 114 108 100 97 88 76 63 45 31 17 8 6 5
337 333 330 333 328 330 328 350 8 33 44 77 76 63 192 55 221 146 107 209 302 315 239 226 173 230 272 19 241 98 92 240 65 335 336 50 84 197 76 111 41 55 342 338 59 219 242 262 81 82 85 111 347 334 9 28 322 306 213 249 294 326 318 251 304 324 316 316 183 317 304 291 306 5 325 42 113 88 45 58 55 47 50 34 6 25 21 6
334 333 333 334 329 327 324 13 40 67 153 56 72 151 167 170 113 94 129 323 21 296 224 345 114 255 217 21 2 320 216 79 122 227 285 48 347 36 89 179 101 264 175 223 5 346 291 270 162 58 36 50 50 346 325 86 323 315 251 208 290 301 319 323 320 342 331 323 136 43 313 291 312 4 322 353 73 60 38 55 39 28 21 9 13 7 359 2
333 336 335 337 330 332 314 54 2 117 90 58 27 18 139 141 61 124 100 71 316 268 355 255 166 227 140 242 10 165 105 61 222 260 319 333 216 123 107 30 103 305 207 216 284 228 225 350 92 131 71 31 59 242 253 179 244 36 269 159 282 283 296 307 318 356 317 308 290 81 281 292 306 323 319 8 89 89 53 65 57 41 19 16 4 353 354 351
334 339 337 340 341 334 70 354 192 152 30 355 225 346 326 358 188 127 12 347 25 244 171 228 87 246 99 275 16 100 17 267 13 356 23 322 353 317 39 272 9 47 151 150 37 298 95 296 32 31 52 65 27 0 277 143 113 279 183 199 276 327 326 314 308 256 257 269 295 136 198 263 292 323 201 353 59 53 36 43 54 29 11 2 351 336 335 338
335 341 337 344 357 13 135 121 55 59 165 252 311 16 347 299 118 353 68 8 295 1 52 282 222 351 69 312 48 107 243 296 29 258 200 299 150 333 62 219 187 228 213 85 278 253 111 323 35 19 59 44 307 214 268 184 177 230 308 13 310 298 282 274 252 275 253 356 301 66 224 338 259 260 13 338 27 12 20 11 7 5 360 354 354 324 285 316
337 342 337 344 355 26 49 89 99 116 158 296 332 63 357 57 90 91 102 178 234 74 92 74 7 35 335 334 31 356 346 20 188 220 313 298 41 177 47 242 150 127 3 163 210 286 280 138 118 114 118 276 234 293 281 169 39 284 305 250 196 227 237 216 235 270 301 357 290 302 237 254 278 292 340 338 100 40 358 4 5 353 346 342 350 344 324 329
337 344 341 342 345 355 12 29 73 166 226 120 163 196 67 60 42 34 8 252 27 275 129 255 62 278 29 41 307 353 87 330 61 319 28 124 336 28 57 72 120 59 151 10 15 226 262 310 188 98 182 204 158 73 149 85 130 302 32 345 347 343 316 283 238 215 354 281 237 161 168 102 294 314 278 74 74 170 3 357 351 349 355 357 354 351 342 343
338 342 347 350 81 326 101 49 245 214 202 160 175 105 154 39 96 104 224 226 52 241 10 19 274 22 38 52 308 313 63 349 335 26 329 12 351 36 17 74 40 46 40 8 13 314 340 10 84 313 37 5 118 88 330 2 307 33 22 17 342 327 350 303 356 346 122 272 195 189 21 22 290 359 83 108 131 154 59 2 350 351 356 346 344 340 337 336
335 345 6 34 314 340 67 225 215 136 190 173 128 56 62 318 19 155 219 327 344 295 113 274 31 101 55 2 157 308 313 335 1 41 45 34 41 25 355 88 10 12 342 18 299 354 342 69 324 324 247 92 94 74 307 319 340 20 2 20 28 294 352 326 63 348 239 271 280 28 4 329 219 267 338 172 101 23 225 354 353 354 349 333 332 339 340 340
331 355 68 55 12 64 55 311 247 225 157 162 92 54 52 86 290 244 270 353 256 55 281 86 251 3 154 30 261 287 229 194 317 68 115 82 100 24 308 107 242 163 239 287 268 13 284 249 327 304 16 3 115 91 330 7 17 9 68 73 71 356 353 301 301 222 269 253 258 7 322 253 274 279 138 117 102 353 351 354 357 360 357 354 348 342 337 333
344 20 129 351 33 323 173 218 257 207 150 97 81 38 48 103 240 213 245 234 243 14 23 51 334 27 165 225 248 63 346 225 66 317 38 225 64 134 296 313 64 20 92 246 167 194 351 336 248 110 222 347 57 124 169 190 129 249 184 128 179 153 262 296 289 301 289 296 308 321 346 207 10 354 189 99 237 354 2 359 2 1 346 338 335 330 325 323
38 78 124 99 239 188 212 238 205 235 98 66 51 99 222 249 240 241 233 284 286 318 190 332 1 10 300 288 303 286 176 312 92 31 18 67 259 134 163 272 325 125 205 74 249 95 213 233 261 301 175 107 116 227 144 116 93 182 177 89 64 236 142 196 229 274 304 306 308 324 250 292 295 61 180 351 7 3 357 353 354 343 337 330 326 326 324 322
85 234 158 95 155 184 217 205 220 133 102 61 89 206 209 194 262 160 252 165 24 298 298 329 189 290 259 304 322 65 331 141 317 71 305 65 163 128 157 186 238 212 171 154 207 2 38 277 255 313 31 76 21 226 256 157 102 255 68 246 221 148 160 265 331 281 4 313 258 294 290 284 21 323 357 354 360 346 347 345 340 337 335 331 326 327 324 323
342 353 231 271 259 217 215 201 182 110 75 92 127 252 205 270 206 166 238 177 256 134 54 347 285 175 273 270 206 4 265 39 249 69 279 158 298 145 148 199 163 264 203 139 325 168 158 253 217 180 179 242 219 172 84 16 126 60 79 227 282 190 146 116 213 297 232 226 269 284 286 300 346 309 37 349 340 335 338 340 336 333 331 328 326 323 324 321
92 8 266 263 225 209 209 210 102 56 83 121 216 229 165 211 216 149 127 92 36 54 116 168 273 137 277 152 298 191 317 148 288 83 256 178 242 137 133 160 183 164 255 283 132 263 104 325 248 267 152 167 67 78 61 30 36 135 187 202 89 340 338 300 96 334 334 282 283 270 296 285 253 280 9 335 332 328 333 337 333 328 327 324 321 319 317 317
88 65 289 235 217 207 174 168 86 88 87 188 218 280 237 226 194 162 191 140 133 126 209 233 211 284 142 231 209 234 168 185 142 186 25 230 118 161 157 144 216 175 248 152 90 190 338 164 305 190 127 205 110 74 261 303 337 36 30 31 40 94 243 92 279 190 247 279 359 292 326 284 83 297 345 322 318 322 332 333 326 321 321 318 317 315 314 315
181 109 268 209 242 103 188 132 60 57 103 213 193 223 167 254 237 229 190 157 227 136 237 191 241 256 192 221 163 183 205 167 161 236 157 279 137 135 150 337 161 297 84 351 131 95 267 118 241 211 253 17 327 108 199 139 181 345 40 1 6 331 202 168 221 142 185 203 194 295 302 278 92 351 319 308 312 327 332 323 319 318 316 315 314 314 311 311
185 201 258 197 235 200 144 69 105 164 199 268 184 224 160 213 167 242 196 200 201 232 196 194 170 210 198 124 268 159 224 183 182 177 191 258 147 296 175 160 154 137 128 43 75 154 63 116 201 251 322 211 229 238 147 159 161 161 150 193 165 204 3 8 295 142 119 124 236 268 265 276 54 310 286 295 317 325 322 316 316 315 312 311 313 309 310 306
130 243 248 172 255 149 115 156 232 141 148 197 223 171 233 152 138 230 162 169 194 235 51 131 245 196 169 220 172 187 163 209 199 183 258 191 286 130 192 125 157 175 115 191 179 233 148 133 55 272 228 244 236 290 247 170 135 142 136 209 189 174 117 142 291 286 340 267 253 245 275 273 81 265 270 307 316 316 315 314 312 311 310 313 310 305 299 302
181 224 29 243 253 172 130 227 112 175 209 237 3 275 122 259 177 185 153 187 200 169 181 198 204 178 250 181 220 182 168 227 159 219 168 280 224 196 188 153 155 85 104 284 28 197 64 98 18 282 321 310 15 342 35 63 94 85 346 95 120 232 206 208 207 259 283 291 281 266 246 274 333 273 287 309 304 308 314 312 310 310 311 310 306 305 305 304
220 212 192 200 166 231 170 218 209 219 237 278 192 245 196 209 168 171 199 204 178 175 182 191 345 215 211 92 151 191 179 222 198 154 245 155 220 132 133 63 198 209 122 239 129 241 63 279 124 310 333 71 87 43 23 314 87 47 243 225 192 214 238 233 230 213 171 249 248 255 267 288 283 325 301 301 307 309 311 307 310 312 312 311 309 308 305 303
116 13 62 267 74 185 210 212 222 208 205 221 206 235 187 236 209 200 180 206 152 158 117 234 184 148 150 163 195 72 233 204 299 241 118 157 182 54 269 252 306 200 238 249 189 57 151 225 93 268 279 313 313 320 306 290 253 203 257 280 266 237 222 48 348 316 266 259 256 235 270 270 293 305 303 309 312 310 310 311 314 310 309 310 310 307 307 309
178 224 149 326 197 287 265 20 307 200 197 178 230 236 154 227 256 255 159 238 163 169 177 134 20 92 136 140 191 214 210 282 185 217 151 179 171 268 204 222 191 210 247 152 110 97 165 346 166 179 172 215 246 254 288 26 346 315 302 294 284 277 203 186 197 217 235 276 278 263 259 283 296 309 309 311 317 316 319 322 321 316 313 310 306 310 317 314
187 211 147 203 55 239 240 127 211 162 220 156 226 168 203 210 189 311 169 216 191 170 154 176 163 151 222 154 201 209 211 168 24 112 199 162 218 201 313 174 221 226 209 118 84 86 82 304 231 212 235 232 241 261 269 257 255 280 297 282 282 293 283 240 209 244 247 308 278 268 279 290 299 306 308 311 313 312 314 316 316 309 311 312 315 318 313 309
213 239 162 175 170 195 190 242 206 213 231 169 233 133 198 187 191 202 161 221 72 156 158 292 173 216 183 184 147 189 171 204 146 207 115 223 98 179 107 90 168 278 161 65 65 127 140 193 264 202 247 238 254 266 274 278 242 206 248 265 278 289 292 281 264 257 247 230 264 288 290 292 295 300 307 305 309 313 313 314 311 306 305 314 317 316 313 309
167 338 232 119 209 204 200 190 177 199 206 196 232 180 208 191 210 194 166 158 160 242 188 222 209 206 204 179 173 202 163 150 250 176 178 177 180 126 179 0 213 97 81 94 55 131 80 253 215 222 255 234 232 246 256 268 261 256 260 261 268 279 274 273 271 268 253 260 266 275 284 284 294 303 301 302 307 309 310 313 317 317 321 319 313 310 311 310
199 176 223 317 49 17 168 138 179 182 214 201 209 217 200 212 216 177 225 162 194 224 161 228 206 187 194 194 198 207 201 202 171 186 195 139 206 180 215 185 146 96 126 162 137 279 114 269 104 258 350 230 212 242 243 225 222 231 260 265 274 275 280 269 264 268 251 260 270 282 292 293 291 288 302 307 305 307 311 325 334 321 320 316 310 311 311 314
166 205 136 141 199 214 134 166 165 187 207 198 214 221 195 213 223 193 211 177 194 187 181 213 179 168 197 204 216 229 205 207 167 192 169 169 184 200 144 252 144 159 157 157 173 279 136 244 71 87 32 300 178 169 230 200 227 243 263 278 282 282 283 277 259 248 266 267 280 290 294 292 299 310 308 308 310 314 316 325 337 326 320 315 310 313 321 322
72 343 141 130 217 172 183 145 140 128 222 207 195 209 196 215 212 159 237 213 211 206 173 181 182 156 202 192 219 218 195 156 175 193 175 139 90 112 105 164 163 156 168 162 157 151 168 146 78 55 13 258 160 133 216 253 273 274 260 230 234 247 255 264 259 244 235 256 286 292 283 292 303 312 312 313 313 311 315 330 329 319 302 297 308 320 319 317